Regional Weather Roundup
Issued by NWS

Home | Current Version | Previous Version | Graphics & Text | Print | Product List | Glossary On
Versions: 1 2 3 4 5 6 7 8 9 10 11 12 13 14 15 16 17 18 19 20 21 22 23 24 25 26 27 28 29 30 31 32 33 34 35 36 37 38 39 40 41 42 43 44 45 46 47 48 49 50
000
ASUS45 KBOU 051007
RWRCO

WEATHER ROUNDUP FOR COLORADO
NATIONAL WEATHER SERVICE DENVER/BOULDER CO
400 AM MDT SAT SEP 05 2015

NOTE: "FAIR" INDICATES FEW OR NO CLOUDS BELOW 12000 FEET WITH NO
SIGNIFICANT WEATHER AND/OR OBSTRUCTIONS TO VISIBILITY.

COZ001>005-013-030-031-051100-
...NORTHWEST COLORADO...

CITY           SKY/WX    TMP DP  RH WIND       PRES   REMARKS
CRAIG          MOCLDY    50  45  83 CALM      30.09R
HAYDEN         MOCLDY    54  43  66 E9        30.10R
MEEKER         CLOUDY    59  45  59 NE8       30.10S
MOUNT WERNER   NOT AVBL
STEAMBOAT SPGS MOCLDY    49  44  83 NW5       30.11S
WALDEN         CLOUDY    50  43  76 SE6       30.18S
$$

COZ006>008-011-051100-
...WEST CENTRAL VALLEYS...

CITY           SKY/WX    TMP DP  RH WIND       PRES   REMARKS
GRAND JUNCTION CLOUDY    58  53  84 E17       30.06R
MONTROSE       CLOUDY    55  52  89 CALM      30.16F
EAGLE          CLOUDY    55  52  88 SW5       30.19R
RIFLE          LGT RAIN  56  53  90 E7        30.12R
DELTA          HVY RAIN  58  55  90 NE6       30.13S
NUCLA          CLOUDY    54  52  94 E5        30.17F
$$

COZ017>023-064>068-051100-
...SOUTHWEST COLORADO...

CITY           SKY/WX    TMP DP  RH WIND       PRES   REMARKS
DURANGO        CLOUDY    56  54  93 NE5       30.20S
CORTEZ         MOCLDY    56  54  93 NE5       30.13S
PAGOSA SPRINGS TSTM      54  54 100 CALM      30.27S
TELLURIDE      CLOUDY    49  47  92 SE6       30.33S
WOLF CREEK PAS NOT AVBL
$$

COZ009-010-012-014-032>034-037-058>063-051100-
...CENTRAL COLORADO...

CITY           SKY/WX    TMP DP  RH WIND       PRES   REMARKS
ASPEN          LGT RAIN  51  48  89 NE3       30.24R
BUENA VISTA    MOCLDY    49  47  93 W6        30.22R
COPPER MTN     MOCLDY    46  34  61 SW9       30.44S
BERTHOUD PASS  CLOUDY    37  27  65 NW17G23   30.45F
COTTONWOOD PAS MOCLDY    52  45  76 CALM      30.32R
GUNNISON       CLOUDY    54  46  76 CALM      30.27S
KREMMLING      CLOUDY    50  45  81 CALM      30.18S
LEADVILLE      MOCLDY    42  42 100 CALM      30.30S
MONARCH PASS   FOG       39  37  93 W18       30.54R VSB<1/4
SALIDA         CLOUDY    60  49  68 CALM      30.25S
SUNLIGHT       LGT RAIN  43  43 100 CALM      30.39S VSB 1
WILKERSON PASS FOG       43  41  93 SW8       30.40S VSB 1/4
$$

COZ069>075-051100-
...SAN LUIS VALLEY/SANGRE DE CRISTO MOUNTAINS...

CITY           SKY/WX    TMP DP  RH WIND       PRES   REMARKS
ALAMOSA        MOCLDY    53  49  86 SW9       30.21R
LA VETA PASS   CLOUDY    45  43  93 S13G23    30.34R
SAGUACHE       DRIZZLE   50  50 100 CALM      30.24R
$$

COZ035-036-038>040-051100-
...NORTHERN COLORADO FRONT RANGE...

CITY           SKY/WX    TMP DP  RH WIND       PRES   REMARKS
DENVER INTL AP MOCLDY    67  48  50 SW10      29.95S
DMNS CITY PARK   N/A     67  50  54 E7        29.96R
AURORA         MOCLDY    67  49  51 S10       29.98S
FRONT RANGE AP NOT AVBL
ERIE MUNI ARPT CLOUDY    61  50  66 CALM      29.95R
BOULDER MUN AP CLOUDY    68  45  42 CALM      29.96R
CENTENNIAL     MOCLDY    66  49  54 S6        29.99S
BROOMFIELD     CLOUDY    64  45  48 W5        29.98R
FORT COLLINS   CLOUDY    64  52  63 S3        29.94S
LONGMONT       CLOUDY    64  52  63 SW3       29.96R
$$

COZ041-046-047-076>085-087-088-051100-
...PIKES PEAK/PALMER DIVIDE AND SOUTHERN FOOTHILLS...

CITY           SKY/WX    TMP DP  RH WIND       PRES   REMARKS
COLO. SPRINGS  PTCLDY    62  48  60 NE10      30.04S
A. F. ACADEMY  PTCLDY    65  45  48 SW6       30.05R
ELLICOTT       PTCLDY   N/A N/A N/A CALM      30.03S
FALCON         PTCLDY    57  46  67 SE3       30.09S
FORT CARSON    PTCLDY    57  50  78 N8        30.00S
LIMON          PTCLDY    59  49  69 CALM      29.98S
MONUMENT HILL  MOCLDY    55  45  67 W5        30.09R
TRINIDAD       CLOUDY    69  48  47 SW12      30.05F
$$

COZ042>045-048>051-090-091-051100-
...NORTHEAST COLORADO...

CITY           SKY/WX    TMP DP  RH WIND       PRES   REMARKS
GREELEY ARPT   CLOUDY    63  54  72 NW3       29.92S
AKRON          MOCLDY    66  51  58 SW12      29.90S
BURLINGTON     PTCLDY    69  48  47 S12       29.94S
WRAY           CLOUDY    75  50  41 S13       29.86S
STERLING       MOCLDY    64  61  88 S3        29.84S
HOLYOKE        CLOUDY    72  57  60 S9        29.85S
FORT MORGAN    MOCLDY    64  49  59 CALM      29.90S
$$

COZ086-089-092>099-051100-
...SOUTHEAST COLORADO...

CITY           SKY/WX    TMP DP  RH WIND       PRES   REMARKS
PUEBLO         CLEAR     66  51  58 SW3       29.97R
LA JUNTA       PTCLDY    71  50  47 SW8       29.95R
LAMAR          MOCLDY    75  51  43 S10       29.91S
SPRINGFIELD      N/A     65  53  65 SW5       30.01R
$$




USA.gov is the U.S. government's official web portal to all federal, state and local government web resources and services.